Back to catalog

SL-14 R/B

AlivePO
NORAD 15370·ROCKET BODY·🇷🇺 Russia

Launched Oct 18, 1984 from Plesetsk Cosmodrome

Loading…

Next Passes (next 24 hours)

TLE

FreshSource: Space-Track

Epoch: Sep 14, 2026, 11:25 UTC

1 15370U 84111B   26257.47594993  .00000287  00000-0  29800-4 0  9993
2 15370  82.5121  78.7761 0021457  69.4886 290.8631 14.86195640243915

Track SL-14 R/B in real time with AllMySat

Download on the App Store